Other Public Products
Issued by NWS Charleston, SC

Current Version | Previous Version | Graphics & Text | Print | Product List | Glossary On
Versions: 1 2 3 4 5 6 7 8 9 10 11 12 13 14 15 16 17 18 19 20 21 22 23 24 25 26 27 28 29 30 31 32 33 34 35 36 37 38 39 40 41 42 43 44 45 46 47 48 49 50
650 FPUS82 KCHS 281427 OPUCHS TEST...KCHS/KSAV Gateway Observations...TEST National Weather Service Charleston SC 1000 AM EDT SUN MAY 28 2017 NOTE: "fair" indicates few or no clouds below 12,000 feet with no significant weather and/or obstructions to visibility. SCZ050-WAZ558-NCZ071-TXZ119-213-PAZ071-DCZ001-FLZ074-172-MI076- NYZ176-178-MAZ016-IL014-TNZ027-NJZ106-GAZ044-MD014-281500- ...Gateway Observations for Charleston International... CITY SKY/WX TMP DP RH WIND PRES REMARKS Chas Airport PTSUNNY 84 68 58 W15 29.94R Seattle SUNNY 59 49 69 SW3 30.11R Charlotte PTSUNNY 76 63 64 W10 29.92S Dallas DFW RAIN 73 71 93 E8 29.93R FOG Dallas Love LGT RAIN 72 70 93 E8 29.94R FOG Philladelphia MOSUNNY 73 60 63 E6 29.91S Wash National PTSUNNY 71 60 68 E7 29.89S Baltimore CLOUDY 68 59 73 E8 29.89R Miami MOSUNNY 85 65 51 CALM 30.05R Detroit CLOUDY 67 54 63 SE6 29.80R Newark PTSUNNY 63 58 83 E7 29.93F Laguardia PTSUNNY 68 57 68 E9 29.92F J F K PTSUNNY 66 59 78 S9 29.95F Boston Logan MOSUNNY 62 56 80 SE8 29.96F Ft. Lauderdale SUNNY 84 68 58 CALM 30.03S Chicago O`Hare CLOUDY 69 60 73 NW3 29.74S Chicago Midway CLOUDY 70 62 76 W5 29.74R Houston Bush PTSUNNY 82 75 79 S8 29.94R Houston Hobby PTSUNNY 82 75 79 S6 29.93R Nashville CLOUDY 68 63 84 SW6 29.93R Atlanta PTSUNNY 69 66 90 SW8 29.99F $$ GAZ044-118-TXZ119-213-NCZ071-DCZ001-MDZ014-506-PAZ021-071-NJZ106- NYZ176-178-MAZ106-OHZ011-021-055-MIZ076-KYZ091-ILZ014-INZ047- MNZ060-ONZ431-281500- ...Gateway Observations for Savannah International... CITY SKY/WX TMP DP RH WIND PRES REMARKS Savannah Arpt PTSUNNY 86 68 54 W10 29.98S Atlanta PTSUNNY 69 66 90 SW8 29.99F Charlotte PTSUNNY 76 63 64 W10 29.92S Dallas DFW RAIN 73 71 93 E8 29.93R FOG Houston Bush PTSUNNY 82 75 79 S8 29.94R Wash National PTSUNNY 71 60 68 E7 29.89S Wash Dulles CLOUDY 69 61 75 NE3 29.88F Baltimore CLOUDY 68 59 73 E8 29.89R Philadelphia MOSUNNY 73 60 63 E6 29.91S Newark PTSUNNY 63 58 83 E7 29.93F Laguardia PTSUNNY 68 57 68 E9 29.92F J F K PTSUNNY 66 59 78 S9 29.95F Boston MOSUNNY 62 56 80 SE8 29.96F Pittsburg CLOUDY 69 64 84 SE5 29.81F Akron PTSUNNY 71 61 70 S7 29.79F Cleveland PTSUNNY 74 62 66 SE8 29.79S Cincinnati CLOUDY 67 62 84 SW9 29.81R Columbus CLOUDY 69 64 82 SW10 29.79S Detroit CLOUDY 67 54 63 SE6 29.80R Chicago O`Hare CLOUDY 69 60 73 NW3 29.74S Minneapolis MOSUNNY 63 45 51 NW16 29.74R Indianapolis CLOUDY 68 62 81 SW8 29.76R Toronto Canada PTSUNNY 64 55 72 E6 29.83F $$

USA.gov is the U.S. government's official web portal to all federal, state and local government web resources and services.